This is the latest recevied weather packets stored in our database for station/object M0TUM-1. If no packets are shown the sender has not sent any weather packets the latest 1 day(s).
| Time | Temp. | Humidity | Pressure | Rain* | Wind** | Luminosity | Snow |
|---|---|---|---|---|---|---|---|
| 1778052534 | 8.89° C | 88% | 1011.9 hPa | 4.32 mm | - | 83 W/m² | - |
| 1778051929 | 8.89° C | 88% | 1011.7 hPa | 1.78 mm | - | 50 W/m² | - |
| 1778051021 | 8.89° C | 88% | 1011.7 hPa | 0 mm | - | 108 W/m² | - |
| 1778050718 | 8.89° C | 88% | 1011.8 hPa | 0 mm | - | 68 W/m² | - |
| 1778050416 | 8.89° C | 89% | 1011.9 hPa | 0 mm | - | 134 W/m² | - |
| 1778050112 | 8.89° C | 89% | 1011.8 hPa | 0 mm | - | 92 W/m² | - |
| 1778049807 | 8.89° C | 89% | 1011.8 hPa | 0 mm | - | 101 W/m² | - |
| 1778049505 | 8.33° C | 88% | 1011.8 hPa | 0 mm | - | 119 W/m² | - |
| 1778048901 | 8.33° C | 88% | 1011.5 hPa | 0 mm | - | 29 W/m² | - |
| 1778048598 | 8.33° C | 88% | 1011.6 hPa | 0 mm | - | 23 W/m² | - |
| 1778048294 | 8.33° C | 88% | 1011.8 hPa | 1.27 mm | - | 34 W/m² | - |
| 1778047689 | 7.78° C | 88% | 1011.6 hPa | 0 mm | - | 29 W/m² | - |
| 1778047387 | 7.78° C | 88% | 1011.6 hPa | 0 mm | - | 19 W/m² | - |
| 1778047083 | 7.78° C | 88% | 1011.6 hPa | 0 mm | - | 26 W/m² | - |
| 1778046477 | 7.78° C | 89% | 1011.6 hPa | 0 mm | - | 21 W/m² | - |
| 1778046174 | 7.78° C | 89% | 1011.5 hPa | 0 mm | - | 15 W/m² | - |
| 1778045569 | 7.78° C | 89% | 1011.6 hPa | 0 mm | - | 23 W/m² | - |
| 1778044965 | 7.22° C | 89% | 1011.4 hPa | 0 mm | - | 19 W/m² | - |
| 1778044662 | 7.22° C | 89% | 1011.5 hPa | 0 mm | - | 26 W/m² | - |
| 1778044358 | 7.22° C | 89% | 1011.5 hPa | 0 mm | - | 27 W/m² | - |
| 1778044056 | 6.67° C | 89% | 1011.6 hPa | 0 mm | - | 15 W/m² | - |
| 1778043753 | 6.67° C | 89% | 1011.7 hPa | 0 mm | - | 11 W/m² | - |
| 1778043450 | 6.67° C | 89% | 1011.4 hPa | 0 mm | - | 12 W/m² | - |
| 1778042844 | 6.67° C | 89% | 1011.6 hPa | 0 mm | - | 9 W/m² | - |
| 1778042238 | 6.11° C | 88% | 1011.5 hPa | 0 mm | - | 8 W/m² | - |
* Rain latest hour (hover to see other rain measurements)
** Current wind speed in m/s (hover to see current wind gust speed)